When you browse on this site, cookies collect data to enhance your experience and personalize the content and advertising you see.
Visit our Privacy Policy to learn more. By continuing to use the site, you agree to this use of cookies and data.
  • In Österreich
  • Länderverzeichnis
  • Für 7 Tage
  • Wassertemperatur
  • Wetterkarte
  • News
  • Widgets
  • user-avatar
    Anmelden

    Stündliche Wetter Newcastle

    Heute, 8 Dezember, Sonntag

    Zeit Temperatur Niederschläge Wind Luftdruck Luftfeuchtigkeit
    00:00 -14°C° 0 mm 3 m/S 762 mmHg 81%
    01:00 -14°C° 0 mm 3 m/S 762 mmHg 82%
    02:00 -15°C° 0 mm 3 m/S 762 mmHg 82%
    03:00 -15°C° 0 mm 3 m/S 762 mmHg 82%
    04:00 -15°C° 0 mm 3 m/S 763 mmHg 83%
    05:00 -15°C° 0 mm 3 m/S 763 mmHg 83%
    06:00 -15°C° 0 mm 3 m/S 763 mmHg 83%
    07:00 -15°C° 0 mm 3 m/S 763 mmHg 84%
    08:00 -16°C° 0 mm 3 m/S 764 mmHg 85%
    09:00 -14°C° 0 mm 3 m/S 764 mmHg 80%
    10:00 -12°C° 0 mm 3 m/S 764 mmHg 76%
    11:00 -9°C° 0 mm 3 m/S 764 mmHg 72%
    12:00 -8°C° 0 mm 3 m/S 764 mmHg 72%
    13:00 -7°C° 0 mm 3 m/S 764 mmHg 73%
    14:00 -6°C° 0 mm 3 m/S 764 mmHg 73%
    15:00 -7°C° 0 mm 3 m/S 763 mmHg 76%
    16:00 -9°C° 0 mm 4 m/S 763 mmHg 79%
    17:00 -9°C° 0 mm 4 m/S 763 mmHg 81%
    18:00 -8°C° 0 mm 4 m/S 762 mmHg 78%
    19:00 -8°C° 0 mm 5 m/S 762 mmHg 76%
    20:00 -8°C° 0 mm 6 m/S 761 mmHg 73%
    21:00 -6°C° 0 mm 6 m/S 761 mmHg 74%
    22:00 -5°C° 0 mm 6 m/S 760 mmHg 75%
    23:00 -5°C° 0 mm 6 m/S 760 mmHg 75%

    Morgen, 9 Dezember, Montag

    Zeit Temperatur Niederschläge Wind Luftdruck Luftfeuchtigkeit
    00:00 -4°C° 0 mm 6 m/S 759 mmHg 75%
    01:00 -4°C° 0 mm 6 m/S 759 mmHg 74%
    02:00 -3°C° 0 mm 6 m/S 759 mmHg 73%
    03:00 -4°C° 0 mm 5 m/S 759 mmHg 75%
    04:00 -4°C° 0 mm 5 m/S 758 mmHg 77%
    05:00 -5°C° 0 mm 5 m/S 758 mmHg 79%
    06:00 -4°C° 0 mm 5 m/S 759 mmHg 82%
    07:00 -3°C° 0 mm 4 m/S 759 mmHg 85%
    08:00 -2°C° 0 mm 4 m/S 759 mmHg 88%
    09:00 -1°C° 0 mm 4 m/S 759 mmHg 89%
    10:00 0°C° 0 mm 4 m/S 759 mmHg 90%
    11:00 +1°C° 0 mm 4 m/S 759 mmHg 91%
    12:00 +1°C° 0 mm 4 m/S 759 mmHg 92%
    13:00 +1°C° 0 mm 4 m/S 759 mmHg 93%
    14:00 +1°C° 0 mm 4 m/S 759 mmHg 94%
    15:00 +2°C° 0 mm 3 m/S 758 mmHg 94%
    16:00 +2°C° 0 mm 3 m/S 758 mmHg 95%
    17:00 +3°C° 0 mm 2 m/S 758 mmHg 96%
    18:00 +3°C° 0.5 mm 2 m/S 757 mmHg 97%
    19:00 +2°C° 0.5 mm 3 m/S 757 mmHg 98%
    20:00 +3°C° 0.5 mm 3 m/S 756 mmHg 98%
    21:00 +4°C° 2.5 mm 4 m/S 754 mmHg 97%
    22:00 +6°C° 2.5 mm 5 m/S 753 mmHg 96%
    23:00 +7°C° 2.5 mm 6 m/S 752 mmHg 95%

    übermorgen, 10 Dezember, Dienstag

    Zeit Temperatur Niederschläge Wind Luftdruck Luftfeuchtigkeit
    00:00 +8°C° 2.1 mm 7 m/S 750 mmHg 94%
    01:00 +8°C° 2.1 mm 7 m/S 748 mmHg 93%
    02:00 +8°C° 2.1 mm 7 m/S 747 mmHg 92%
    03:00 +9°C° 3.2 mm 7 m/S 745 mmHg 92%
    04:00 +9°C° 3.2 mm 7 m/S 744 mmHg 92%
    05:00 +9°C° 3.2 mm 7 m/S 742 mmHg 93%
    06:00 +9°C° 0.9 mm 7 m/S 742 mmHg 91%
    07:00 +9°C° 0.9 mm 7 m/S 741 mmHg 90%
    08:00 +9°C° 0.9 mm 6 m/S 741 mmHg 88%
    09:00 +9°C° 0 mm 6 m/S 742 mmHg 88%
    10:00 +9°C° 0 mm 6 m/S 742 mmHg 88%
    11:00 +9°C° 0 mm 6 m/S 743 mmHg 88%
    12:00 +9°C° 0 mm 6 m/S 743 mmHg 86%
    13:00 +9°C° 0 mm 5 m/S 743 mmHg 85%
    14:00 +9°C° 0 mm 5 m/S 743 mmHg 83%
    15:00 +8°C° 0 mm 5 m/S 743 mmHg 85%
    16:00 +8°C° 0 mm 5 m/S 743 mmHg 87%
    17:00 +7°C° 0 mm 5 m/S 743 mmHg 89%
    18:00 +7°C° 0.1 mm 5 m/S 744 mmHg 85%
    19:00 +6°C° 0.1 mm 5 m/S 745 mmHg 81%
    20:00 +5°C° 0.1 mm 5 m/S 746 mmHg 77%
    21:00 +2°C° 0 mm 5 m/S 747 mmHg 75%
    22:00 +1°C° 0 mm 5 m/S 748 mmHg 72%
    23:00 -1°C° 0 mm 5 m/S 750 mmHg 70%

    11 Dezember, Mittwoch

    Zeit Temperatur Niederschläge Wind Luftdruck Luftfeuchtigkeit
    00:00 -4°C° 0 mm 5 m/S 751 mmHg 70%
    01:00 -5°C° 0 mm 5 m/S 752 mmHg 70%
    02:00 -7°C° 0 mm 4 m/S 753 mmHg 70%
    03:00 -7°C° 0 mm 4 m/S 754 mmHg 67%
    04:00 -8°C° 0 mm 4 m/S 755 mmHg 64%
    05:00 -9°C° 0 mm 4 m/S 756 mmHg 62%
    06:00 -8°C° 0 mm 3 m/S 756 mmHg 61%
    07:00 -8°C° 0 mm 3 m/S 757 mmHg 60%
    08:00 -9°C° 0 mm 3 m/S 757 mmHg 59%
    09:00 -8°C° 0 mm 3 m/S 758 mmHg 56%
    10:00 -7°C° 0 mm 2 m/S 758 mmHg 54%
    11:00 -7°C° 0 mm 2 m/S 759 mmHg 52%
    12:00 -7°C° 0 mm 2 m/S 758 mmHg 50%
    13:00 -6°C° 0 mm 2 m/S 758 mmHg 49%
    14:00 -6°C° 0 mm 2 m/S 758 mmHg 48%
    15:00 -6°C° 0 mm 2 m/S 758 mmHg 51%
    16:00 -6°C° 0 mm 2 m/S 759 mmHg 55%
    17:00 -6°C° 0 mm 2 m/S 759 mmHg 58%
    18:00 -7°C° 0 mm 2 m/S 759 mmHg 60%
    19:00 -7°C° 0 mm 2 m/S 760 mmHg 61%
    20:00 -7°C° 0 mm 2 m/S 760 mmHg 63%
    21:00 -6°C° 0 mm 1 m/S 760 mmHg 64%
    22:00 -6°C° 0 mm 1 m/S 760 mmHg 65%
    23:00 -7°C° 0 mm 0 m/S 759 mmHg 66%

    12 Dezember, Donnerstag

    Zeit Temperatur Niederschläge Wind Luftdruck Luftfeuchtigkeit
    00:00 -6°C° 0 mm 1 m/S 759 mmHg 66%
    01:00 -7°C° 0 mm 2 m/S 759 mmHg 67%
    02:00 -7°C° 0 mm 2 m/S 758 mmHg 67%
    03:00 -8°C° 0.1 mm 3 m/S 758 mmHg 73%
    04:00 -8°C° 0.1 mm 3 m/S 758 mmHg 80%
    05:00 -9°C° 0.1 mm 4 m/S 758 mmHg 87%
    06:00 -11°C° 0.2 mm 5 m/S 760 mmHg 77%
    07:00 -14°C° 0.2 mm 6 m/S 761 mmHg 67%
    08:00 -15°C° 0.2 mm 7 m/S 762 mmHg 57%
    09:00 -17°C° 0 mm 7 m/S 764 mmHg 53%
    10:00 -17°C° 0 mm 7 m/S 766 mmHg 49%
    11:00 -17°C° 0 mm 6 m/S 767 mmHg 45%
    12:00 -17°C° 0 mm 6 m/S 768 mmHg 45%
    13:00 -17°C° 0 mm 6 m/S 768 mmHg 44%
    14:00 -17°C° 0 mm 6 m/S 769 mmHg 44%
    15:00 -17°C° 0 mm 6 m/S 770 mmHg 47%
    16:00 -18°C° 0 mm 6 m/S 771 mmHg 49%
    17:00 -18°C° 0 mm 5 m/S 772 mmHg 52%
    18:00 -19°C° 0 mm 5 m/S 772 mmHg 52%
    19:00 -19°C° 0 mm 5 m/S 773 mmHg 53%
    20:00 -19°C° 0 mm 5 m/S 774 mmHg 54%
    21:00 -19°C° 0 mm 4 m/S 774 mmHg 54%
    22:00 -19°C° 0 mm 4 m/S 775 mmHg 54%
    23:00 -18°C° 0 mm 3 m/S 775 mmHg 55%

    13 Dezember, Freitag

    Zeit Temperatur Niederschläge Wind Luftdruck Luftfeuchtigkeit
    00:00 -18°C° 0 mm 3 m/S 775 mmHg 55%
    01:00 -17°C° 0 mm 2 m/S 775 mmHg 55%
    02:00 -17°C° 0 mm 2 m/S 775 mmHg 54%
    03:00 -16°C° 0 mm 2 m/S 775 mmHg 55%
    04:00 -16°C° 0 mm 2 m/S 775 mmHg 57%
    05:00 -16°C° 0 mm 2 m/S 775 mmHg 58%
    06:00 -16°C° 0 mm 2 m/S 775 mmHg 59%
    07:00 -15°C° 0 mm 2 m/S 775 mmHg 61%
    08:00 -15°C° 0 mm 2 m/S 775 mmHg 63%
    09:00 -14°C° 0 mm 2 m/S 775 mmHg 61%
    10:00 -13°C° 0 mm 2 m/S 775 mmHg 59%
    11:00 -13°C° 0 mm 3 m/S 775 mmHg 57%
    12:00 -12°C° 0 mm 3 m/S 774 mmHg 54%
    13:00 -10°C° 0 mm 3 m/S 773 mmHg 51%
    14:00 -9°C° 0 mm 3 m/S 772 mmHg 48%
    15:00 -9°C° 0 mm 3 m/S 772 mmHg 51%
    16:00 -9°C° 0 mm 3 m/S 771 mmHg 55%
    17:00 -8°C° 0 mm 2 m/S 771 mmHg 59%
    18:00 -8°C° 0 mm 3 m/S 770 mmHg 66%
    19:00 -8°C° 0 mm 3 m/S 770 mmHg 72%
    20:00 -7°C° 0 mm 3 m/S 769 mmHg 79%
    21:00 -6°C° 0 mm 3 m/S 769 mmHg 83%
    22:00 -5°C° 0 mm 3 m/S 768 mmHg 87%
    23:00 -5°C° 0 mm 4 m/S 768 mmHg 91%
    Mehr zeigen